Hourly Data Report for July 23, 2003

SHERBROOKE A
QUEBEC

45°26'00.000" N
71°41'00.000" W
241.40 m
7028124
71610
YSC

Download Data

Hourly Data (July 2003)
Hourly Data Report for July 23, 2003
TIME
LST
Temp Definition
°C
Dew Point Definition
°C
Rel Hum Definition
%
Precip. Amount Definition
mm

Wind Dir Definition
10's deg

Wind Spd Definition
km/h
Visibility Definition
km
Stn Press Definition
kPa
Hmdx Definition


Wind Chill Definition


Weather Definition


00:00 17.8 16.8 94   10 6 6.4 98.14      
01:00 17.8 16.8 94   8 11 8.0 98.14      
02:00 17.4 16.6 95   7 7 4.8 98.13      
03:00 17.7 16.7 94   6 11 5.6 98.14      
04:00 17.8 16.8 94   5 11 6.4 98.12      
05:00 17.5 16.6 94   5 11 9.7 98.14      
06:00 17.3 16.2 93   6 7 8.0 98.17     Rain
07:00 17.4 16.3 93   4 7 4.8 98.20     Drizzle, Fog
08:00 17.4 16.5 94   36 6 8.0 98.24     Rain, Fog
09:00 17.3 16.3 94   4 13 9.7 98.22     Rain, Fog
10:00 16.8 15.7 93   3 13 19.3 98.25     Cloudy
11:00 17.8 16.7 93   5 13 19.3 98.24     Rain Showers
12:00 18.1 16.9 93   3 7 12.9 98.25     Rain Showers
13:00 18.3 17.0 92   4 9 19.3 98.26     Rain Showers
14:00 19.0 17.6 92   2 7 24.1 98.25     Cloudy
15:00 18.8 17.3 91   4 9 24.1 98.26     Cloudy
16:00 19.5 17.3 87   2 6 24.1 98.30     Cloudy
17:00 19.4 16.9 85   2 6 15.0 98.32      
18:00 18.7 16.5 87   36 7 15.0 98.34     Rain
19:00 17.7 16.5 93   3 6 6.4 98.37     Moderate Rain
20:00 17.4 16.4 94   36 4 12.9 98.42     Rain
21:00 17.4 16.4 94   6 6 15.0 98.48      
22:00 16.3 15.3 94     0 11.3 98.48      
23:00 16.7 15.9 95   31 4 15.0 98.50      

Notes on Data Quality.

Legend

  • E = Estimated
  • M = Missing
  • NA = Not Available*
  • [empty] = Indicates an unobserved value
Date modified: